User: anonymous   Login
Location: Theydon Bois
(51.6750°N, 0.1050°E)
Time: 06:43:51
(UTC+01:00)
Language:

USA 186 - Orbit

View from above orbital plane
View from above orbital plane
View from above satellite
View from above satellite

Ground track
Ground track

The orbit data is extracted from the following two-line orbital elements,

1 28888U 05042A   18165.10463407 0.00013000  00000-0  62855-4 0    08
2 28888  96.8863 203.7483 0144917 191.2415 168.7583 15.68512586    07
Epoch (UTC): 14 June 2018 02:30:40
Eccentricity: 0.0144917
inclination: 96.8863°
perigee height: 265 km
apogee height: 461 km
right ascension of ascending node: 203.7483°
argument of perigee: 191.2415°
revolutions per day: 15.68512586
mean anomaly at epoch: 168.7583°
orbit number at epoch: 0

The dashed part of the orbit path shows where the satellite is in the earth's shadow,  

DLR